[[{"header":{"parameterUnit":"m.s-1","parameterCategory":1,"la1":30.2991,"la2":30.254,"lo1":-89.0895,"lo2":-89.0444,"dy":0.0017,"dx":0.0017,"nx":28,"ny":28,"refTime":"2024-10-09T09:00:00:Z","depth":0,"parameterNumber":2,"parameterNumberName":"U-component_of_WINDS"},"data":[0,0,0,0,0,0,0,0,0,0,0,0,0,0,0,0,0,0,0,0,0,0,0,0,0,0,0,0,0,0,0,0,0,0,0,0,0,0,0,0,0,0,0,0,0,0,0,0,0,0,0,0,0,0,0,0,0,0,-1.2024,-1.2024,0,-1.2087,-1.2087,-1.2088,-1.2027,-1.2025,-1.2022,-1.202,-1.2086,-1.209,-1.2094,0,0,0,0,0,0,0,0,0,0,0,0,0,-1.1853,-1.1856,-1.2024,-1.2025,-1.2025,-1.2087,-1.2087,-1.2088,-1.2027,-1.2024,-1.2022,-1.2019,-1.2085,-1.209,-1.2095,0,0,0,0,0,0,0,0,0,0,0,0,0,-1.1922,-1.1857,-1.2024,-1.2002,-1.2001,-1.2086,-1.2087,-1.2089,-1.2028,-1.2024,-1.2021,-1.2017,-1.2083,-1.2089,-1.2095,-1.2206,0,0,-1.2114,-1.2116,0,0,0,0,0,0,0,0,-1.1919,-1.1929,-1.2005,-1.2004,-1.2003,-1.2045,-1.2051,-1.2128,-1.2029,-1.2018,-1.202,-1.2016,-1.2076,-1.2082,-1.2102,-1.2209,-1.2212,-1.2114,-1.2118,-1.2121,-1.2122,0,0,0,0,0,0,0,-1.1914,-1.1926,-1.2049,-1.2006,-1.2005,-1.199,-1.1996,-1.2066,-1.2067,-1.2019,-1.2014,-1.2022,-1.2075,-1.2096,-1.2103,-1.2213,-1.2114,-1.212,-1.2123,-1.2126,-1.2414,-1.2418,0,0,0,0,0,0,-1.1911,-1.1922,-1.2047,-1.2051,-1.1951,-1.1996,-1.2003,-1.2035,-1.2066,-1.2067,-1.2025,-1.2019,-1.2088,-1.2096,-1.2105,-1.2238,-1.2121,-1.2126,-1.213,-1.241,-1.2415,-1.2419,0,0,0,0,0,0,-1.1908,-1.1923,-1.2044,-1.1985,-1.2,-1.2003,-1.204,-1.2038,-1.206,-1.2071,-1.2071,-1.2048,-1.2085,-1.2097,-1.2181,-1.2239,-1.2129,-1.2134,-1.2405,-1.2411,-1.2417,-1.2503,0,0,0,0,0,0,-1.1903,-1.1922,-1.1964,-1.1987,-1.2003,-1.2119,-1.2043,-1.2042,-1.2071,-1.2063,-1.2092,-1.2093,-1.2083,-1.2173,-1.2187,-1.2246,-1.2139,-1.24,-1.2408,-1.2415,-1.2495,-1.2511,-1.2525,0,0,0,0,0,-1.1897,-1.1986,-1.1966,-1.1981,-1.2055,-1.2122,-1.2132,-1.2119,-1.2075,-1.2118,-1.2125,-1.2092,-1.223,-1.2182,-1.2198,-1.2259,-1.2396,-1.2406,-1.2414,-1.2488,-1.2508,-1.2525,0,0,0,0,0,0,-1.197,-1.1988,-1.1967,-1.2065,-1.2093,-1.2112,-1.2165,-1.214,-1.218,-1.2172,-1.2154,-1.2161,-1.2251,-1.2262,-1.2209,-1.2367,-1.2306,-1.2319,-1.2357,-1.2376,-1.2391,-1.2387,-1.2144,0,0,0,0,0,-1.1997,-1.205,-1.2063,-1.2149,-1.2163,-1.2162,-1.2191,-1.2178,-1.2206,-1.2218,-1.223,-1.2259,-1.2309,-1.2343,-1.2389,-1.2495,-1.2502,-1.2545,-1.256,-1.2573,-1.2585,-1.2643,-1.2663,-1.2449,-1.2449,-1.2448,0,0,-1.2055,-1.2071,-1.2106,-1.2164,-1.2184,-1.224,-1.2172,-1.2234,-1.2275,-1.2227,-1.2308,-1.2318,-1.2349,-1.2446,-1.2489,-1.2459,-1.2645,-1.2584,-1.2594,-1.2599,-1.2655,-1.2675,-1.2693,-1.2455,-1.2454,-1.2453,0,0,-1.2189,-1.2206,-1.228,-1.2301,-1.2331,-1.2329,-1.2347,-1.237,-1.2375,-1.2456,-1.2421,-1.247,-1.2556,-1.258,-1.2603,-1.2745,-1.2718,-1.2761,-1.2841,-1.2898,-1.2915,-1.293,-1.2983,-1.3002,-1.2772,-1.2772,-1.2772,0,-1.2257,-1.234,-1.2321,-1.2386,-1.2413,-1.237,-1.2446,-1.2467,-1.2511,-1.2531,-1.2496,-1.2603,-1.2621,-1.2723,-1.2758,-1.2777,-1.2798,-1.2759,-1.2914,-1.2928,-1.2942,-1.2993,-1.3012,-1.2778,-1.2777,-1.2776,-1.2776,0,-1.2423,-1.248,-1.2536,-1.258,-1.2613,-1.2682,-1.2675,-1.2711,-1.2695,-1.2697,-1.278,-1.2799,-1.285,-1.2872,-1.2857,-1.2973,-1.2953,-1.2916,-1.2855,-1.2968,-1.3015,-1.3034,-1.2785,-1.2783,-1.2782,-1.278,0,0,-1.2607,-1.2639,-1.266,-1.268,-1.271,-1.2754,-1.2821,-1.287,-1.2902,-1.2933,-1.2991,-1.3064,-1.303,-1.3056,-1.3043,-1.3093,-1.3207,-1.305,-1.3051,-1.3081,-1.3338,-1.3368,-1.339,-1.3187,-1.3191,-1.3194,-1.3336,0,-1.2744,-1.2861,-1.2846,-1.2959,-1.3013,-1.2973,-1.3032,-1.3057,-1.306,-1.3107,-1.311,-1.3163,-1.3113,-1.3129,-1.3176,-1.3183,-1.3259,-1.3172,-1.3243,-1.3245,-1.3239,-1.3414,-1.3446,-1.3579,-1.3354,-1.3357,-1.3359,0,-1.292,-1.2958,-1.3076,-1.3098,-1.312,-1.3173,-1.3217,-1.3261,-1.3288,-1.3287,-1.3317,-1.3295,-1.3364,-1.3298,-1.3394,-1.3335,-1.3362,-1.337,-1.3375,-1.3383,-1.3311,-1.343,-1.3621,-1.3642,-1.3387,-1.3385,-1.3383,0,-1.3046,-1.3125,-1.3207,-1.3224,-1.3252,-1.329,-1.3304,-1.3327,-1.3358,-1.3395,-1.3415,-1.346,-1.3486,-1.3521,-1.3513,-1.3466,-1.3611,-1.3544,-1.3613,-1.3614,-1.3648,-1.3647,-1.385,-1.3661,-1.3661,-1.3661,-1.366,0,-1.3202,-1.3276,-1.3264,-1.3314,-1.3397,-1.3378,-1.3461,-1.3469,-1.349,-1.3542,-1.3509,-1.3559,-1.3542,-1.3591,-1.3584,-1.3665,-1.3676,-1.3679,-1.3677,-1.3684,-1.3684,-1.3704,-1.3695,-1.3666,-1.3665,-1.3664,-1.3663,0,-1.3357,-1.3352,-1.3438,-1.3456,-1.3463,-1.3523,-1.3539,-1.3587,-1.3586,-1.3652,-1.3667,-1.3667,-1.3723,-1.3717,-1.3779,-1.3775,-1.3876,-1.3861,-1.3867,-1.3865,-1.3935,-1.393,-1.416,-1.419,-1.398,-1.3982,-1.3984,0,-1.3459,-1.3515,-1.3539,-1.3571,-1.3587,-1.3639,-1.367,-1.3653,-1.3687,-1.3722,-1.3766,-1.3818,-1.386,-1.3951,-1.3958,-1.4005,-1.3993,-1.407,-1.4,-1.4006,-1.3998,-1.3996,-1.4002,-1.4085,-1.4088,-1.409,-1.4091,0,-1.364,-1.3635,-1.3679,-1.3724,-1.3761,-1.3795,-1.3826,-1.3854,-1.3841,-1.388,-1.3936,-1.3968,-1.4031,-1.4085,-1.413,-1.4144,-1.4117,-1.4113,-1.4132,-1.4141,-1.4143,-1.4145,-1.3908,-1.4108,-1.4107,-1.4105,-1.4104,-1.4104,-1.3774,-1.3823,-1.3847,-1.3899,-1.392,-1.3949,-1.3995,-1.4001,-1.4047,-1.4098,-1.4084,-1.4149,-1.4175,-1.4232,-1.4251,-1.4301,-1.4273,-1.43,-1.4308,-1.4315,-1.4325,-1.4132,-1.4309,-1.4309,-1.4308,-1.4308,-1.4307,0,-1.3956,-1.3969,-1.4017,-1.4061,-1.4101,-1.407,-1.4102,-1.4139,-1.4195,-1.4222,-1.4263,-1.4328,-1.4379,-1.4389,-1.4438,-1.4477,-1.4466,-1.449,-1.4489,-1.4493,-1.4346,-1.4326,-1.4499,-1.4499,-1.4499,-1.4499,-1.4499,-1.4499,-1.4056,-1.4137,-1.4134,-1.4226,-1.4239,-1.4301,-1.4323,-1.435,-1.4371,-1.4445,-1.4487,-1.4493,-1.4513,-1.4563,-1.4609,-1.4611,-1.4632,-1.4662,-1.4659,-1.4522,-1.4503,-1.4485,-1.4466,-1.4666,-1.4666,-1.4803,-1.4804,-1.4805]},{"header":{"parameterUnit":"m.s-1","parameterCategory":1,"la1":30.2991,"la2":30.254,"lo1":-89.0895,"lo2":-89.0444,"dy":0.0017,"dx":0.0017,"nx":28,"ny":28,"refTime":"2024-10-09T09:00:00:Z","depth":0,"parameterNumber":3,"parameterNumberName":"V-component_of_WINDS"},"data":[0,0,0,0,0,0,0,0,0,0,0,0,0,0,0,0,0,0,0,0,0,0,0,0,0,0,0,0,0,0,0,0,0,0,0,0,0,0,0,0,0,0,0,0,0,0,0,0,0,0,0,0,0,0,0,0,0,0,-4.2985,-4.2986,0,-4.3049,-4.305,-4.3051,-4.2983,-4.298,-4.2977,-4.2975,-4.3037,-4.3041,-4.3045,0,0,0,0,0,0,0,0,0,0,0,0,0,-4.2799,-4.2803,-4.2985,-4.2986,-4.2987,-4.3049,-4.305,-4.3051,-4.2983,-4.298,-4.2977,-4.2974,-4.3036,-4.3041,-4.3046,0,0,0,0,0,0,0,0,0,0,0,0,0,-4.2873,-4.2804,-4.2985,-4.296,-4.2959,-4.3049,-4.305,-4.3051,-4.2984,-4.298,-4.2976,-4.2972,-4.3034,-4.304,-4.3046,-4.3163,0,0,-4.3065,-4.3068,0,0,0,0,0,0,0,0,-4.2869,-4.288,-4.2963,-4.2962,-4.2961,-4.3004,-4.3007,-4.3088,-4.2985,-4.2974,-4.2975,-4.297,-4.3029,-4.3035,-4.3056,-4.3166,-4.3168,-4.3066,-4.3069,-4.3072,-4.3074,0,0,0,0,0,0,0,-4.2864,-4.2877,-4.301,-4.2965,-4.2963,-4.2945,-4.2951,-4.3022,-4.3023,-4.2975,-4.297,-4.2979,-4.3028,-4.305,-4.3057,-4.3169,-4.3065,-4.3071,-4.3075,-4.3077,-4.3376,-4.338,0,0,0,0,0,0,-4.2862,-4.2873,-4.3008,-4.3012,-4.2905,-4.2951,-4.2958,-4.2994,-4.3022,-4.3022,-4.2982,-4.2975,-4.3042,-4.305,-4.3059,-4.3196,-4.3072,-4.3078,-4.3081,-4.3372,-4.3377,-4.3381,0,0,0,0,0,0,-4.2859,-4.2875,-4.3006,-4.2942,-4.2957,-4.2959,-4.2999,-4.2997,-4.302,-4.3027,-4.3027,-4.3005,-4.3039,-4.305,-4.3137,-4.3197,-4.308,-4.3086,-4.3367,-4.3373,-4.3379,-4.3473,0,0,0,0,0,0,-4.2854,-4.2874,-4.292,-4.2943,-4.2961,-4.3085,-4.3003,-4.3001,-4.3031,-4.3023,-4.3049,-4.305,-4.3037,-4.3128,-4.3143,-4.3204,-4.3091,-4.3361,-4.3369,-4.3377,-4.3464,-4.3481,-4.3496,0,0,0,0,0,-4.2847,-4.2943,-4.2922,-4.2939,-4.3018,-4.3088,-4.3098,-4.3082,-4.3036,-4.3081,-4.3086,-4.3049,-4.3188,-4.3138,-4.3154,-4.3217,-4.3357,-4.3367,-4.3376,-4.3457,-4.3478,-4.3496,0,0,0,0,0,0,-4.2925,-4.2946,-4.2923,-4.3029,-4.3058,-4.3077,-4.3133,-4.3105,-4.3147,-4.3137,-4.3115,-4.3121,-4.3214,-4.3224,-4.3167,-4.3331,-4.3265,-4.3278,-4.3321,-4.3341,-4.3357,-4.3352,-4.3096,0,0,0,0,0,-4.2955,-4.3012,-4.3026,-4.3118,-4.3134,-4.3131,-4.3162,-4.3147,-4.3175,-4.3186,-4.3197,-4.3225,-4.3275,-4.3308,-4.3355,-4.3465,-4.3469,-4.3516,-4.3532,-4.3545,-4.3557,-4.3615,-4.3636,-4.3413,-4.3413,-4.3412,0,0,-4.3017,-4.3035,-4.3072,-4.3135,-4.3155,-4.3213,-4.3142,-4.3207,-4.3249,-4.3196,-4.3279,-4.3288,-4.3317,-4.3416,-4.346,-4.3428,-4.362,-4.3558,-4.3568,-4.3573,-4.3627,-4.3648,-4.3667,-4.3419,-4.3418,-4.3417,0,0,-4.3159,-4.3179,-4.3258,-4.328,-4.3312,-4.3309,-4.3328,-4.3351,-4.3356,-4.3439,-4.34,-4.3449,-4.3536,-4.3558,-4.3581,-4.3731,-4.3698,-4.3746,-4.383,-4.3887,-4.3904,-4.392,-4.3973,-4.3992,-4.3758,-4.3758,-4.3758,0,-4.3231,-4.3319,-4.3301,-4.337,-4.3397,-4.3352,-4.3431,-4.3453,-4.3498,-4.3518,-4.3481,-4.3588,-4.3605,-4.3708,-4.3745,-4.3765,-4.3785,-4.3743,-4.3904,-4.3919,-4.3933,-4.3983,-4.4003,-4.3764,-4.3763,-4.3763,-4.3762,0,-4.3406,-4.3468,-4.3527,-4.3573,-4.3608,-4.3681,-4.3673,-4.3709,-4.3692,-4.3692,-4.3777,-4.3795,-4.3844,-4.3867,-4.385,-4.3968,-4.3947,-4.3907,-4.3841,-4.396,-4.4007,-4.4026,-4.3772,-4.377,-4.3768,-4.3767,0,0,-4.36,-4.3635,-4.3657,-4.3677,-4.3709,-4.3755,-4.3825,-4.3874,-4.3906,-4.3938,-4.3996,-4.407,-4.4033,-4.4059,-4.4044,-4.4094,-4.421,-4.4048,-4.4048,-4.4077,-4.434,-4.437,-4.4393,-4.4189,-4.4192,-4.4195,-4.4338,0,-4.3743,-4.3867,-4.3852,-4.3969,-4.4025,-4.3983,-4.4043,-4.4069,-4.4071,-4.4117,-4.4119,-4.4172,-4.412,-4.4135,-4.4183,-4.4186,-4.4263,-4.4176,-4.4241,-4.4244,-4.4235,-4.4417,-4.4449,-4.4583,-4.4356,-4.4359,-4.4361,0,-4.3926,-4.3966,-4.409,-4.4112,-4.4135,-4.419,-4.4233,-4.4279,-4.4306,-4.4304,-4.4333,-4.4308,-4.4377,-4.4309,-4.4403,-4.4344,-4.4369,-4.4375,-4.438,-4.4385,-4.431,-4.4428,-4.4625,-4.4646,-4.439,-4.4388,-4.4386,0,-4.4055,-4.414,-4.4224,-4.4242,-4.4271,-4.431,-4.4324,-4.4347,-4.4377,-4.4414,-4.4433,-4.4478,-4.4502,-4.4536,-4.4524,-4.4476,-4.462,-4.4551,-4.4619,-4.462,-4.4652,-4.465,-4.4856,-4.4668,-4.4668,-4.4668,-4.4667,0,-4.4216,-4.4293,-4.4282,-4.4334,-4.4419,-4.44,-4.4484,-4.4492,-4.4513,-4.4564,-4.453,-4.4578,-4.4559,-4.4606,-4.4597,-4.4676,-4.4687,-4.4686,-4.4683,-4.469,-4.469,-4.4706,-4.4696,-4.4673,-4.4672,-4.4671,-4.467,0,-4.4375,-4.4371,-4.446,-4.4479,-4.4486,-4.4547,-4.4563,-4.4611,-4.461,-4.4676,-4.469,-4.4689,-4.4743,-4.4734,-4.4793,-4.4786,-4.4885,-4.487,-4.4876,-4.4873,-4.4941,-4.4935,-4.5166,-4.5195,-4.4988,-4.499,-4.4992,0,-4.4478,-4.4536,-4.4562,-4.4595,-4.4612,-4.4665,-4.4695,-4.4679,-4.4712,-4.4746,-4.479,-4.4841,-4.4881,-4.4968,-4.4972,-4.5016,-4.5002,-4.508,-4.5009,-4.5013,-4.5003,-4.5,-4.5005,-4.5094,-4.5097,-4.5098,-4.51,0,-4.4661,-4.4656,-4.4703,-4.4748,-4.4786,-4.4821,-4.4852,-4.488,-4.4866,-4.4905,-4.496,-4.4991,-4.5052,-4.5102,-4.5144,-4.5156,-4.5126,-4.5122,-4.514,-4.5148,-4.5149,-4.5149,-4.4915,-4.5117,-4.5115,-4.5114,-4.5113,-4.5113,-4.4795,-4.4845,-4.4871,-4.4923,-4.4945,-4.4975,-4.5021,-4.5026,-4.5072,-4.5121,-4.5108,-4.517,-4.5194,-4.5247,-4.5264,-4.5311,-4.5282,-4.5309,-4.5315,-4.5322,-4.533,-4.5142,-4.5319,-4.5318,-4.5318,-4.5317,-4.5317,0,-4.4977,-4.4991,-4.504,-4.5085,-4.5126,-4.5094,-4.5127,-4.5163,-4.5218,-4.5244,-4.5284,-4.5347,-4.5395,-4.5403,-4.5448,-4.5485,-4.5472,-4.5497,-4.5494,-4.5497,-4.5354,-4.5334,-4.5507,-4.5507,-4.5507,-4.5507,-4.5507,-4.5507,-4.5076,-4.5158,-4.5156,-4.5248,-4.5261,-4.5323,-4.5344,-4.5371,-4.5391,-4.5464,-4.5504,-4.5509,-4.5527,-4.5573,-4.5616,-4.5616,-4.5635,-4.5666,-4.5661,-4.5527,-4.5508,-4.549,-4.547,-4.567,-4.567,-4.5801,-4.5802,-4.5803]}]]